User: anonymous   Login
Location: Caltech
(34.1382°N, 118.1253°W)
Time: 00:06:13
(UTC-07:00)
Language:

Cosmos 2084 - Orbit

View from above orbital plane
View from above orbital plane
View from above satellite
View from above satellite

Ground track
Ground track

The orbit data is extracted from the following two-line orbital elements,

1 20663U 90055A   16176.79420766  .00000158  00000-0  31911-4 0  9991
2 20663  62.7934 340.6502 0124947  54.5642 306.7041 14.91244442406504
Epoch (UTC): 24 June 2016 19:03:39
Eccentricity: 0.0124947
inclination: 62.7934°
perigee height: 507 km
apogee height: 681 km
right ascension of ascending node: 340.6502°
argument of perigee: 54.5642°
revolutions per day: 14.91244442
mean anomaly at epoch: 306.7041°
orbit number at epoch: 40650

The dashed part of the orbit path shows where the satellite is in the earth's shadow,  

DLR